Weather History for Meacham, OR

Change the Weather History Date:

Monday, October 7, 2013

  Actual Average Record
Temperature  
Mean Temperature 42 °F -  
Max Temperature 57 °F 59 °F 75 °F (1996)
Min Temperature 28 °F 28 °F 17 °F (2012)
Degree Days  
Heating Degree Days 24    
Moisture  
Dew Point 33 °F    
Average Humidity 72    
Maximum Humidity 89    
Minimum Humidity 42    
Precipitation  
Precipitation 0.00 in - - ()
Sea Level Pressure  
Sea Level Pressure 30.02 in    
Wind  
Wind Speed 1 mph (West)    
Max Wind Speed 10 mph    
Max Gust Speed 22 mph    
Visibility 10 miles    
Events Rain    
Averages and records for this station are not official NWS values.
T = Trace of Precipitation, MM = Missing Value Source: NWS Daily Summary

Daily Weather History Graph

Daily Weather History Graph

Search for Another Location

Airport:

Trip Planner

Search our weather history database for the weather conditions in past years. The results will help you decide how hot, cold, wet, or windy it might be!

Date:

Astronomy

Oct. 07, 2013 Rise Set
Actual Time 6:59 AM PDT 6:22 PM PDT
Civil Twilight 6:30 AM PDT 6:51 PM PDT
Nautical Twilight 5:56 AM PDT 7:25 PM PDT
Astronomical Twilight 5:21 AM PDT 8:00 PM PDT
Moon 10:04 AM PDT (10/7) 8:00 PM PDT (10/7)
Length of Visible Light 12h 21m
Length of Day
11h 22m
Waxing Crescent, 9% of the Moon is Illuminated
Oct 7
Waxing Crescent
Oct 11
First Quarter
Oct 18
Full
Oct 26
Last Quarter
Nov 3
New

Hourly Weather History & Observations

Time (PDT) Temp. Windchill Dew Point Humidity Pressure Visibility Wind Dir Wind Speed Gust Speed Precip Events Conditions
12:56 AM 33.1 °F - 28.0 °F 82% 30.03 in 10.0 mi Calm Calm - N/A   Clear
1:56 AM 30.9 °F - 27.0 °F 85% 30.01 in 10.0 mi Calm Calm - N/A   Clear
2:56 AM 30.0 °F - 26.1 °F 85% 30.01 in 10.0 mi Calm Calm - N/A   Clear
3:56 AM 28.9 °F - 26.1 °F 89% 29.99 in 10.0 mi Calm Calm - N/A   Clear
4:56 AM 30.9 °F - 28.0 °F 89% 29.99 in 10.0 mi Calm Calm - N/A   Clear
5:56 AM 30.0 °F - 27.0 °F 88% 29.99 in 10.0 mi Calm Calm - N/A   Clear
6:56 AM 30.9 °F - 27.0 °F 85% 29.99 in 10.0 mi Calm Calm - N/A   Clear
7:56 AM 33.1 °F - 28.9 °F 85% 29.99 in 10.0 mi Calm Calm - N/A   Mostly Cloudy
8:56 AM 37.9 °F - 32.0 °F 79% 30.01 in 10.0 mi Calm Calm - N/A   Overcast
9:56 AM 43.0 °F - 36.0 °F 76% 30.01 in 10.0 mi Calm Calm - N/A   Overcast
10:56 AM 52.0 °F - 37.9 °F 59% 30.00 in 10.0 mi Calm Calm - N/A   Mostly Cloudy
11:56 AM 55.9 °F - 33.1 °F 42% 29.99 in 10.0 mi Calm Calm - N/A   Scattered Clouds
12:56 PM 54.0 °F - 35.1 °F 49% 30.01 in 10.0 mi West 6.9 mph - N/A   Clear
1:56 PM 53.1 °F - 39.9 °F 61% 30.02 in 10.0 mi Variable 3.5 mph - 0.00 in Rain Light Rain
2:42 PM 51.8 °F - 39.2 °F 62% 30.00 in 10.0 mi Variable 3.5 mph - 0.00 in   Overcast
2:56 PM 50.0 °F - 36.0 °F 59% 30.04 in 10.0 mi West 10.4 mph 21.9 mph 0.00 in   Overcast
3:56 PM 50.0 °F - 35.1 °F 57% 30.04 in 10.0 mi Variable 5.8 mph - N/A   Mostly Cloudy
4:56 PM 48.9 °F - 36.0 °F 61% 30.03 in 10.0 mi Variable 3.5 mph - N/A   Partly Cloudy
5:56 PM 48.0 °F - 37.0 °F 66% 30.05 in 10.0 mi Variable 3.5 mph - N/A   Mostly Cloudy
6:56 PM 45.0 °F 43.5 °F 35.1 °F 68% 30.07 in 10.0 mi Variable 3.5 mph - N/A   Mostly Cloudy
7:56 PM 43.0 °F - 35.1 °F 74% 30.07 in 10.0 mi Calm Calm - N/A   Mostly Cloudy
8:29 PM 42.8 °F - 35.6 °F 76% 30.03 in 10.0 mi Calm Calm - N/A   Overcast
8:56 PM 43.0 °F - 36.0 °F 76% 30.06 in 10.0 mi Calm Calm - N/A   Overcast
9:56 PM 42.1 °F - 35.1 °F 76% 30.06 in 10.0 mi Calm Calm - N/A   Mostly Cloudy
10:43 PM 42.8 °F 40.1 °F 35.6 °F 76% 30.03 in 10.0 mi Variable 4.6 mph - N/A   Mostly Cloudy
10:56 PM 42.1 °F 40.2 °F 35.1 °F 76% 30.04 in 10.0 mi West 3.5 mph - N/A   Overcast
11:56 PM 42.1 °F 40.2 °F 35.1 °F 76% 30.02 in 10.0 mi Variable 3.5 mph - N/A   Overcast